KD5UIG Weather Reports


Display with metric or nautical units.
time (UTC)temp
F
wind
direction
speed
MPH
gust
MPH
rain 1hr
in
rain 24hr
in
rain mn
in
humidity
%
barometer
mb
20260507232555 76 159 0.0 3.0 0.00 0.00 0.00 46 1014.7
20260507232057 76 0 0.0 4.0 0.00 0.00 0.00 45 1014.8
20260507231555 76 161 1.0 4.0 0.00 0.00 0.00 46 1014.8
20260507231054 75 0 0.0 4.0 0.00 0.00 0.00 47 1014.9
20260507230554 75 0 1.0 4.0 0.00 0.00 0.00 49 1015.0
20260507230054 76 0 0.0 3.0 0.00 0.00 0.00 46 1015.0
20260507225554 77 78 0.0 3.0 0.00 0.00 0.00 45 1015.0
20260507225056 76 0 0.0 4.0 0.00 0.00 0.00 47 1014.9
20260507224553 75 162 0.0 4.0 0.00 0.00 0.00 47 1015.0
20260507224055 74 111 0.0 3.0 0.00 0.00 0.00 48 1015.1
20260507223555 73 0 0.0 4.0 0.00 0.00 0.00 48 1015.1
20260507223105 73 75 0.0 4.0 0.00 0.00 0.00 48 1015.2
20260507222554 74 73 0.0 4.0 0.00 0.00 0.00 47 1015.2
20260507222055 74 101 0.0 3.0 0.00 0.00 0.00 47 1015.2
20260507221553 74 142 0.0 3.0 0.00 0.00 0.00 47 1015.3
20260507221056 74 94 0.0 3.0 0.00 0.00 0.00 49 1015.4
20260507220554 74 0 0.0 4.0 0.00 0.00 0.00 48 1015.3
20260507220056 74 93 0.0 4.0 0.00 0.00 0.00 48 1015.2
20260507215555 74 76 0.0 3.0 0.00 0.00 0.00 48 1015.4
20260507215054 74 65 0.0 3.0 0.00 0.00 0.00 48 1015.4
20260507214555 74 0 0.0 4.0 0.00 0.00 0.00 49 1015.3
20260507214054 74 80 0.0 4.0 0.00 0.00 0.00 47 1015.4
20260507213555 74 0 1.0 4.0 0.00 0.00 0.00 47 1015.4
20260507213054 75 0 0.0 3.0 0.00 0.00 0.00 48 1015.5
20260507212554 75 0 0.0 6.0 0.00 0.00 0.00 47 1015.6
20260507212054 74 0 1.0 7.0 0.00 0.00 0.00 47 1015.6
20260507211602 75 30 2.0 7.0 0.00 0.00 0.00 47 1015.5
20260507211054 76 0 0.0 3.0 0.00 0.00 0.00 47 1015.7
20260507210554 75 186 0.0 4.0 0.00 0.00 0.00 47 1015.8
20260507210114 76 0 0.0 5.0 0.00 0.00 0.00 47 1015.7
20260507205554 75 190 0.0 5.0 0.00 0.00 0.00 48 1015.9
20260507205055 74 59 0.0 5.0 0.00 0.00 0.00 48 1015.8
20260507204555 74 90 2.0 9.0 0.00 0.00 0.00 49 1015.7
20260507204055 74 57 0.0 9.0 0.00 0.00 0.00 48 1015.9
20260507203553 75 69 2.0 9.0 0.00 0.00 0.00 46 1015.9
20260507203054 75 76 2.0 8.0 0.00 0.00 0.00 47 1016.1
20260507202556 74 78 2.0 4.0 0.00 0.00 0.00 48 1016.1
20260507202054 74 56 1.0 6.0 0.00 0.00 0.00 49 1016.2
20260507201558 74 65 0.0 6.0 0.00 0.00 0.00 47 1016.2
20260507201054 74 90 2.0 5.0 0.00 0.00 0.00 45 1016.5
20260507200557 74 83 2.0 5.0 0.00 0.00 0.00 46 1016.5
20260507200105 74 81 0.0 5.0 0.00 0.00 0.00 50 1016.7
20260507195556 74 35 0.0 6.0 0.00 0.00 0.00 48 1016.6
20260507195056 75 90 1.0 7.0 0.00 0.00 0.00 47 1016.7
20260507194558 74 97 2.0 7.0 0.00 0.00 0.00 48 1016.6
20260507194053 74 0 2.0 7.0 0.00 0.00 0.00 49 1016.7
20260507193556 74 0 1.0 7.0 0.00 0.00 0.00 49 1017.0
20260507193055 74 0 3.0 9.0 0.00 0.00 0.00 48 1017.0
20260507192554 73 89 2.0 9.0 0.00 0.00 0.00 49 1017.1
20260507192053 73 59 0.0 6.0 0.00 0.00 0.00 49 1017.2
20260507191554 73 0 1.0 7.0 0.00 0.00 0.00 46 1017.3
20260507191054 73 69 2.0 7.0 0.00 0.00 0.00 49 1017.5
20260507190553 73 360 0.0 6.0 0.00 0.00 0.00 49 1017.3
20260507190106 72 274 1.0 6.0 0.00 0.00 0.00 49 1017.4
20260507185553 73 0 1.0 6.0 0.00 0.00 0.00 46 1017.3
20260507185053 72 55 1.0 8.0 0.00 0.00 0.00 48 1017.4
20260507184555 72 0 0.0 8.0 0.00 0.00 0.00 47 1017.4
20260507184055 74 73 2.0 9.0 0.00 0.00 0.00 47 1017.5
20260507183554 73 66 3.0 9.0 0.00 0.00 0.00 49 1017.5
20260507183113 73 0 2.0 9.0 0.00 0.00 0.00 47 1017.6
20260507182555 73 22 1.0 9.0 0.00 0.00 0.00 46 1017.6
20260507182055 73 69 2.0 8.0 0.00 0.00 0.00 47 1017.7
20260507181600 72 88 1.0 8.0 0.00 0.00 0.00 48 1017.7
20260507181055 72 66 2.0 8.0 0.00 0.00 0.00 48 1017.8
20260507180556 72 106 1.0 6.0 0.00 0.00 0.00 47 1017.9
20260507180055 72 88 2.0 8.0 0.00 0.00 0.00 46 1018.1
20260507175555 71 59 3.0 8.0 0.00 0.00 0.00 49 1018.2
20260507175055 72 5 1.0 7.0 0.00 0.00 0.00 48 1018.3
20260507174603 72 78 2.0 6.0 0.00 0.00 0.00 48 1018.5
20260507174056 72 33 1.0 7.0 0.00 0.00 0.00 49 1018.6
20260507173555 72 302 1.0 7.0 0.00 0.00 0.00 48 1018.7
20260507173113 71 313 1.0 4.0 0.00 0.00 0.00 48 1018.9
20260507172556 71 250 1.0 8.0 0.00 0.00 0.00 51 1018.9
20260507172058 70 0 2.0 8.0 0.00 0.00 0.00 47 1019.1
20260507171600 70 360 2.0 8.0 0.00 0.00 0.00 49 1019.2
20260507171055 70 0 1.0 4.0 0.00 0.00 0.00 49 1019.3
20260507170556 70 5 1.0 4.0 0.00 0.00 0.00 48 1019.2
20260507170057 70 360 1.0 8.0 0.00 0.00 0.00 48 1019.2
20260507165555 70 79 1.0 8.0 0.00 0.00 0.00 51 1019.3
20260507165055 70 76 2.0 8.0 0.00 0.00 0.00 49 1019.3
20260507164629 70 76 2.0 7.0 0.00 0.00 0.00 49 1019.3
20260507164138 69 49 0.0 8.0 0.00 0.00 0.00 51 1019.4
20260507163556 69 40 3.0 8.0 0.00 0.00 0.00 50 1019.5
20260507163056 69 62 1.0 4.0 0.00 0.00 0.00 52 1019.5
20260507162555 68 67 1.0 7.0 0.00 0.00 0.00 52 1019.5
20260507162055 68 92 3.0 7.0 0.00 0.00 0.00 51 1019.6
20260507161603 68 65 1.0 5.0 0.00 0.00 0.00 54 1019.7
20260507161059 67 61 0.0 5.0 0.00 0.00 0.00 56 1019.7
20260507160555 66 0 2.0 5.0 0.00 0.00 0.00 56 1019.6
20260507160054 67 0 1.0 5.0 0.00 0.00 0.00 56 1019.8
20260507155558 67 0 1.0 5.0 0.00 0.02 0.00 56 1019.8
20260507155055 66 50 1.0 6.0 0.00 0.02 0.00 56 1019.9
20260507154558 66 65 1.0 6.0 0.00 0.02 0.00 55 1019.9
20260507154056 66 78 2.0 5.0 0.00 0.02 0.00 57 1020.0
20260507153557 66 0 1.0 4.0 0.00 0.02 0.00 57 1019.9
20260507153056 66 74 0.0 7.0 0.00 0.02 0.00 59 1020.0
20260507152557 64 69 1.0 7.0 0.00 0.02 0.00 60 1020.1
20260507152055 64 0 0.0 4.0 0.00 0.02 0.00 61 1020.1
20260507151556 65 57 1.0 4.0 0.00 0.02 0.00 62 1020.1
20260507151055 65 0 0.0 5.0 0.00 0.02 0.00 63 1020.1
20260507150555 64 80 1.0 5.0 0.00 0.02 0.00 64 1020.1
20260507150055 64 62 0.0 4.0 0.00 0.02 0.00 64 1020.0
20260507145555 63 24 0.0 4.0 0.00 0.02 0.00 68 1020.1
20260507145059 62 53 0.0 3.0 0.00 0.02 0.00 68 1020.2
20260507144554 62 67 0.0 5.0 0.00 0.02 0.00 69 1020.4
20260507144056 61 5 0.0 5.0 0.00 0.02 0.00 69 1020.4
20260507143556 61 0 1.0 5.0 0.00 0.02 0.00 69 1020.3
20260507143100 61 0 0.0 4.0 0.00 0.02 0.00 70 1020.5
20260507142555 61 15 1.0 4.0 0.00 0.02 0.00 70 1020.5
20260507142055 61 70 0.0 3.0 0.00 0.02 0.00 72 1020.5
20260507141559 60 331 0.0 3.0 0.00 0.02 0.00 73 1020.5
20260507141055 58 0 0.0 3.0 0.00 0.02 0.00 79 1020.6
20260507140555 57 0 0.0 3.0 0.00 0.02 0.00 79 1020.7
20260507140058 57 0 0.0 4.0 0.00 0.02 0.00 81 1020.7
20260507135556 56 11 1.0 4.0 0.00 0.02 0.00 82 1020.7
20260507135055 55 0 0.0 3.0 0.00 0.02 0.00 84 1020.7
20260507134559 55 0 0.0 3.0 0.00 0.02 0.00 85 1020.6
20260507134054 54 28 0.0 3.0 0.00 0.02 0.00 86 1020.8
20260507133555 54 0 0.0 2.0 0.00 0.02 0.00 87 1020.8
20260507133100 53 0 0.0 2.0 0.00 0.02 0.00 87 1020.8
20260507132556 53 0 0.0 1.0 0.00 0.02 0.00 88 1020.6
20260507132058 52 0 0.0 1.0 0.00 0.02 0.00 88 1020.6
20260507131606 51 0 0.0 2.0 0.00 0.02 0.00 88 1020.6
20260507131058 51 0 0.0 2.0 0.00 0.02 0.00 87 1020.6
20260507130555 51 360 0.0 2.0 0.00 0.02 0.00 88 1020.5
20260507130059 50 0 0.0 2.0 0.00 0.02 0.00 87 1020.6
20260507125555 50 0 0.0 1.0 0.00 0.02 0.00 88 1020.5
20260507125055 50 0 0.0 1.0 0.00 0.02 0.00 88 1020.4
20260507124604 49 0 0.0 1.0 0.00 0.02 0.00 87 1020.3
20260507124055 49 0 0.0 1.0 0.00 0.02 0.00 87 1020.3
20260507123555 49 0 0.0 1.0 0.00 0.02 0.00 87 1020.2
20260507123100 49 0 0.0 1.0 0.00 0.02 0.00 87 1020.2
20260507122554 49 0 0.0 1.0 0.00 0.02 0.00 87 1020.1
20260507122054 49 0 0.0 1.0 0.00 0.02 0.00 87 1020.0
20260507121056 49 0 0.0 1.0 0.00 0.02 0.00 87 1019.9
20260507120555 49 0 0.0 1.0 0.00 0.02 0.00 87 1019.8
20260507120055 49 360 0.0 1.0 0.00 0.02 0.00 87 1019.7
20260507115555 49 0 0.0 1.0 0.00 0.02 0.00 87 1019.8
20260507115056 49 0 0.0 2.0 0.00 0.02 0.00 87 1019.7
20260507114611 49 10 0.0 2.0 0.00 0.02 0.00 87 1019.7
20260507114055 49 0 0.0 2.0 0.00 0.02 0.00 86 1019.9
20260507113557 49 0 0.0 2.0 0.00 0.02 0.00 86 1019.8
20260507113128 49 0 0.0 2.0 0.00 0.02 0.00 86 1019.9
20260507112555 49 0 0.0 2.0 0.00 0.02 0.00 86 1019.8
20260507112055 49 0 0.0 1.0 0.00 0.02 0.00 86 1019.6
20260507111559 49 0 0.0 1.0 0.00 0.02 0.00 86 1019.6
20260507111054 49 0 0.0 1.0 0.00 0.02 0.00 86 1019.5
20260507110555 49 0 0.0 1.0 0.00 0.02 0.00 86 1019.5
20260507110059 50 0 0.0 1.0 0.00 0.02 0.00 86 1019.4
20260507105557 50 0 0.0 1.0 0.00 0.02 0.00 86 1019.3
20260507105057 50 0 0.0 2.0 0.00 0.02 0.00 86 1019.2
20260507104558 50 0 0.0 2.0 0.00 0.02 0.00 86 1019.2
20260507104055 50 0 0.0 1.0 0.00 0.02 0.00 86 1019.2
20260507103556 50 0 0.0 1.0 0.00 0.02 0.00 86 1019.1
20260507103057 50 0 0.0 1.0 0.00 0.02 0.00 86 1019.2
20260507102555 50 0 0.0 1.0 0.00 0.02 0.00 86 1019.2
20260507102055 50 0 0.0 2.0 0.00 0.02 0.00 86 1019.1
20260507101554 50 0 0.0 2.0 0.00 0.02 0.00 86 1019.0
20260507101055 51 0 0.0 1.0 0.00 0.02 0.00 86 1018.8
20260507100559 51 0 0.0 1.0 0.00 0.02 0.00 86 1018.7
20260507100057 51 0 0.0 1.0 0.00 0.02 0.00 86 1018.5
20260507095555 51 0 0.0 1.0 0.00 0.02 0.00 86 1018.3
20260507095055 51 40 0.0 1.0 0.00 0.02 0.00 86 1018.1
20260507094559 51 0 0.0 1.0 0.00 0.02 0.00 86 1018.2
20260507094055 51 0 0.0 1.0 0.00 0.02 0.00 85 1018.3
20260507093555 51 0 0.0 2.0 0.00 0.02 0.00 85 1018.1
20260507093054 51 0 0.0 2.0 0.00 0.02 0.00 85 1018.2
20260507092555 51 0 0.0 2.0 0.00 0.02 0.00 85 1018.1
20260507092056 51 0 0.0 2.0 0.00 0.02 0.00 85 1018.1
20260507091627 51 0 0.0 2.0 0.00 0.02 0.00 85 1018.1
20260507091057 51 0 0.0 2.0 0.00 0.02 0.00 85 1018.1
20260507090555 51 0 0.0 1.0 0.00 0.02 0.00 85 1018.0
20260507090055 51 0 0.0 1.0 0.00 0.02 0.00 85 1017.9
20260507085555 51 0 0.0 1.0 0.00 0.02 0.00 84 1017.9
20260507085055 51 0 0.0 1.0 0.00 0.02 0.00 84 1017.9
20260507084605 51 0 0.0 0.0 0.00 0.02 0.00 84 1017.9
20260507084054 51 0 0.0 1.0 0.00 0.02 0.00 84 1017.9
20260507083555 52 0 0.0 1.0 0.00 0.02 0.00 84 1018.1
20260507083053 52 0 0.0 1.0 0.00 0.02 0.00 84 1018.1
20260507082555 52 0 0.0 1.0 0.00 0.02 0.00 84 1018.0
20260507082055 52 0 0.0 1.0 0.00 0.02 0.00 84 1018.0
20260507081600 52 0 0.0 1.0 0.00 0.02 0.00 84 1018.0
20260507081055 52 0 0.0 1.0 0.00 0.02 0.00 84 1017.9
20260507080558 52 0 0.0 1.0 0.00 0.02 0.00 84 1017.8
20260507080055 52 0 0.0 2.0 0.00 0.02 0.00 84 1017.7
20260507075555 52 18 0.0 2.0 0.00 0.02 0.00 83 1017.7
20260507075055 52 0 0.0 2.0 0.00 0.02 0.00 83 1017.7
20260507074558 52 5 0.0 2.0 0.00 0.02 0.00 83 1017.7
20260507074056 53 49 0.0 3.0 0.00 0.02 0.00 83 1017.5
20260507073557 53 0 0.0 4.0 0.00 0.02 0.00 83 1017.5
20260507073057 53 0 0.0 4.0 0.00 0.02 0.00 83 1017.6
20260507072555 53 319 0.0 2.0 0.00 0.02 0.00 82 1017.6
20260507072129 53 20 0.0 2.0 0.00 0.02 0.00 82 1017.7
20260507071554 53 0 0.0 3.0 0.00 0.02 0.00 82 1017.7
20260507071055 53 20 0.0 3.0 0.00 0.02 0.00 82 1017.7
20260507070555 53 0 0.0 3.0 0.00 0.02 0.00 81 1017.8
20260507070053 54 0 0.0 2.0 0.00 0.02 0.00 81 1017.8
20260507065558 54 0 0.0 1.0 0.00 0.02 0.00 81 1017.8
20260507065055 54 0 0.0 1.0 0.00 0.02 0.00 81 1017.8
20260507064556 54 0 0.0 1.0 0.00 0.02 0.00 80 1017.9
20260507064055 54 0 0.0 1.0 0.00 0.02 0.00 80 1017.8
20260507063555 54 0 0.0 1.0 0.00 0.02 0.00 80 1017.7
20260507063055 54 0 0.0 1.0 0.00 0.02 0.00 80 1017.7
20260507062554 54 0 0.0 2.0 0.00 0.02 0.00 80 1017.7
20260507062055 54 0 0.0 2.0 0.00 0.02 0.00 80 1017.7
20260507061557 55 74 0.0 3.0 0.00 0.02 0.00 80 1017.6
20260507061057 55 74 0.0 3.0 0.00 0.02 0.00 80 1017.4
20260507060559 55 0 0.0 4.0 0.00 0.02 0.00 80 1017.4
20260507055555 55 0 0.0 3.0 0.00 0.02 0.00 80 1017.3
20260507055056 55 0 0.0 3.0 0.00 0.02 0.00 80 1017.2
20260507054058 55 57 0.0 4.0 0.00 0.02 0.00 79 1017.2
20260507053555 55 57 1.0 4.0 0.00 0.02 0.00 79 1017.1
20260507053058 55 0 1.0 4.0 0.00 0.02 0.00 79 1017.1
20260507052559 55 0 1.0 4.0 0.00 0.02 0.00 79 1017.0
20260507052055 55 49 1.0 5.0 0.00 0.02 0.00 79 1017.0
20260507051558 55 0 1.0 5.0 0.00 0.02 0.00 79 1017.0
20260507051057 55 69 1.0 4.0 0.00 0.02 0.00 78 1017.0
20260507050601 55 68 1.0 4.0 0.00 0.02 0.00 78 1017.1
20260507050055 56 0 1.0 4.0 0.00 0.02 0.00 78 1017.1
20260507045556 56 69 0.0 4.0 0.00 0.02 0.02 78 1017.1
20260507045056 56 69 0.0 3.0 0.00 0.02 0.02 77 1017.2
20260507044610 56 0 0.0 2.0 0.00 0.02 0.02 77 1017.3
20260507044055 56 0 0.0 2.0 0.00 0.02 0.02 77 1017.3
20260507043555 57 0 0.0 2.0 0.00 0.02 0.02 76 1017.4
20260507043123 57 0 0.0 2.0 0.00 0.02 0.02 76 1017.5
20260507042556 57 66 0.0 2.0 0.00 0.02 0.02 76 1017.5
20260507042055 57 0 0.0 2.0 0.00 0.02 0.02 75 1017.5
20260507041610 57 0 0.0 3.0 0.00 0.02 0.02 75 1017.5
20260507041055 58 65 0.0 3.0 0.00 0.02 0.02 74 1017.4
20260507040555 58 65 0.0 3.0 0.00 0.02 0.02 74 1017.3
20260507040055 58 0 1.0 4.0 0.00 0.02 0.02 74 1017.4
20260507035556 58 65 0.0 5.0 0.00 0.02 0.02 73 1017.3
20260507035056 58 70 1.0 6.0 0.00 0.02 0.02 73 1017.4
20260507034555 58 69 2.0 7.0 0.00 0.02 0.02 73 1017.4
20260507034055 58 78 1.0 7.0 0.00 0.02 0.02 73 1017.5
20260507033556 58 90 0.0 5.0 0.00 0.02 0.02 72 1017.5
20260507033054 59 88 1.0 7.0 0.00 0.02 0.02 72 1017.3
20260507032559 59 71 2.0 8.0 0.00 0.02 0.02 71 1017.2
20260507032055 59 75 3.0 8.0 0.00 0.02 0.02 71 1017.3
20260507031553 59 56 1.0 8.0 0.00 0.02 0.02 71 1017.3
20260507031058 59 101 2.0 8.0 0.00 0.02 0.02 71 1017.3
20260507030555 59 90 1.0 7.0 0.00 0.02 0.02 71 1017.3
20260507030057 59 60 1.0 5.0 0.00 0.02 0.02 71 1017.2
20260507025555 60 0 1.0 8.0 0.00 0.02 0.02 71 1017.1
20260507025059 60 0 1.0 8.0 0.00 0.02 0.02 71 1017.1
20260507024556 60 71 1.0 6.0 0.00 0.02 0.02 71 1017.1
20260507024056 60 63 1.0 6.0 0.00 0.02 0.02 70 1017.0
20260507023555 60 53 1.0 8.0 0.00 0.02 0.02 70 1017.0
20260507023108 60 35 1.0 8.0 0.00 0.02 0.02 70 1016.9
20260507022555 60 86 1.0 7.0 0.00 0.02 0.02 70 1016.8
20260507022056 60 94 1.0 8.0 0.00 0.02 0.02 69 1016.8
20260507021555 60 42 2.0 8.0 0.00 0.02 0.02 69 1016.8
20260507021056 60 77 2.0 8.0 0.00 0.02 0.02 69 1016.9
20260507020556 60 41 2.0 8.0 0.00 0.02 0.02 69 1016.8
20260507020059 60 0 2.0 9.0 0.00 0.02 0.02 69 1016.6
20260507015555 60 71 2.0 9.0 0.00 0.02 0.02 69 1016.5
20260507015055 61 73 0.0 8.0 0.00 0.02 0.02 69 1016.2
20260507014557 61 0 2.0 8.0 0.00 0.02 0.02 69 1016.1
20260507014055 61 5 2.0 8.0 0.00 0.02 0.02 69 1015.9
20260507013556 61 0 1.0 9.0 0.00 0.02 0.02 69 1015.8
20260507013054 61 59 2.0 9.0 0.00 0.02 0.02 68 1015.6
20260507012555 62 311 2.0 9.0 0.00 0.02 0.02 68 1015.4
20260507012056 62 67 1.0 6.0 0.00 0.02 0.02 68 1015.2
20260507011555 62 30 2.0 6.0 0.00 0.02 0.02 68 1015.1
20260507011055 62 360 1.0 5.0 0.00 0.02 0.02 68 1015.0
20260507010555 62 360 1.0 6.0 0.00 0.02 0.02 68 1015.0
20260507010059 63 31 1.0 9.0 0.00 0.02 0.02 68 1015.0
20260507005556 63 82 1.0 9.0 0.00 0.02 0.02 68 1014.9
20260507005059 63 63 2.0 6.0 0.00 0.02 0.02 67 1014.9
20260507004554 63 64 1.0 5.0 0.00 0.02 0.02 67 1014.8
20260507004055 63 19 2.0 5.0 0.00 0.02 0.02 67 1014.7
20260507003556 63 127 1.0 4.0 0.00 0.02 0.02 67 1014.7
20260507003114 63 0 0.0 6.0 0.00 0.02 0.02 67 1014.6
20260507002555 63 360 1.0 6.0 0.00 0.02 0.02 67 1014.6
20260507002056 64 360 1.0 5.0 0.00 0.02 0.02 67 1014.5
20260507001612 64 360 1.0 6.0 0.00 0.02 0.02 67 1014.4
20260507001055 64 0 1.0 6.0 0.00 0.02 0.02 67 1014.4
20260507000559 64 360 1.0 8.0 0.00 0.02 0.02 66 1014.3
20260507000054 64 360 1.0 9.0 0.00 0.02 0.02 66 1014.2
20260506235556 64 360 1.0 9.0 0.00 0.02 0.02 66 1014.1
20260506235057 65 68 2.0 8.0 0.00 0.02 0.02 66 1014.1
20260506234556 65 84 1.0 8.0 0.00 0.02 0.02 66 1013.9
20260506234058 65 63 2.0 10.0 0.00 0.02 0.02 66 1014.0
20260506233557 65 82 2.0 10.0 0.00 0.02 0.02 66 1013.9
20260506233058 65 74 2.0 9.0 0.00 0.02 0.02 66 1013.8